Location: Godiavel Galaoual
(15.2485°N, 12.6604°W)
Time: 13:32:21
(UTC+00:00)

LightSail 2 - Pass Details

Date: 11 June 2020
Orbit: 691 x 722 km, 24.0° (Epoch: 06 July)

Event Time Altitude Azimuth Distance (km) Brightness Sun altitude
Rises 21:58:28 0° 281° (W) 3,043 9.2 -33.0°
Reaches altitude 10° 22:01:07 10° 292° (WNW) 2,126 8.3 -33.5°
Enters shadow 22:04:27 28° 329° (NNW) 1,264 6.9 -34.1°
